Location: Blue Sky Observatory
(43.1153°N, 70.9036°W)
Time: 20:45:03
(UTC-04:00)

Amateur Radio Satellites - All Passes

Search period start: 22 October 2017 20:15
Search period end: 23 October 2017 20:15
Location: Blue Sky Observatory, 43.1153°N, 70.9036°W

Satellite Date Start Highest point End Downlink Frequencies (MHz)
Time Altitude Azimuth
DELFI C3 22 Oct 20:18:25 20:20:21 13° 64° (ENE) 20:22:16 145.870
CUBEBUG 2 22 Oct 20:20:58 20:24:51 25° 266° (W) 20:28:48 437.445
ZACube-1 22 Oct 20:24:19 20:28:52 67° 259° (WSW) 20:33:27 437.345
XW-2A 22 Oct 20:25:18 20:28:00 21° 265° (W) 20:30:41 145.665 - 145.685
AO-85 22 Oct 20:29:29 20:33:23 28° 46° (NE) 20:37:32 145.980
SEEDS 22 Oct 20:33:28 20:35:56 15° 269° (W) 20:38:24 437.485
Max Valier Satellite 22 Oct 20:39:22 20:41:38 16° 66° (ENE) 20:43:55 145.860
AAUSAT CUBESAT 2 22 Oct 20:48:29 20:51:41 22° 266° (W) 20:54:54 437.432
HO-68 22 Oct 20:49:36 20:53:53 17° 271° (W) 20:58:13 435.675
O/OREOS (USA 219) 22 Oct 20:52:45 20:57:13 54° 297° (WNW) 21:01:45 437.305
YUBILEINY 22 Oct 20:53:07 21:01:56 78° 265° (W) 21:10:44 435.215
UWE-3 22 Oct 20:54:09 20:57:34 20° 268° (W) 21:01:01 435.000/436.395/437.385
FO-29 22 Oct 20:54:51 21:01:26 39° 97° (E) 21:08:30 435.910
BEESAT 2 22 Oct 20:56:05 21:00:05 59° 53° (NE) 21:04:03 435.950
Oscar 11 22 Oct 20:56:56 21:01:07 47° 261° (W) 21:05:19 .
BEESAT 3 22 Oct 21:07:01 21:10:33 31° 244° (WSW) 21:13:59 437.485
STRAND 1 22 Oct 21:32:51 21:36:55 24° 296° (WNW) 21:40:57 437.568
AO-73 22 Oct 21:39:26 21:41:47 14° 270° (W) 21:44:09 145.935
ESTCUBE 1 22 Oct 21:50:34 21:51:00 10° 59° (ENE) 21:51:26 437.505/2401.250
DELFI C3 22 Oct 21:50:51 21:54:39 51° 261° (W) 21:58:29 145.870
EO-88 22 Oct 21:55:26 21:59:05 87° 257° (WSW) 22:02:45 145.990 - 145.960
UNISAT 6 22 Oct 21:57:40 22:01:41 29° 95° (E) 22:05:35 437.425
AO-85 22 Oct 22:09:33 22:13:55 42° 242° (WSW) 22:18:33 145.980
TIGRISAT 22 Oct 22:11:32 22:15:48 37° 97° (E) 22:19:57 435.000
Max Valier Satellite 22 Oct 22:11:39 22:15:09 38° 262° (W) 22:18:40 145.860
PRISM 22 Oct 22:14:21 22:17:05 17° 93° (E) 22:19:49 437.425
BEESAT 2 22 Oct 22:35:22 22:37:19 13° 251° (WSW) 22:39:16 435.950
LO-87 22 Oct 22:36:34 22:39:52 35° 72° (ENE) 22:43:12 145.935 - 145.965
FO-29 22 Oct 22:39:54 22:46:26 45° 292° (WNW) 22:53:34 435.910
YUBILEINY 22 Oct 22:52:36 22:57:11 16° 286° (WNW) 23:01:47 435.215
VELOX 1 22 Oct 23:04:09 23:05:01 11° 59° (ENE) 23:05:53 145.980
ESTCUBE 1 22 Oct 23:22:34 23:27:03 88° 75° (ENE) 23:31:34 437.505/2401.250
SPROUT 22 Oct 23:31:06 23:34:42 27° 68° (ENE) 23:38:20 437.525
AIST 2D 22 Oct 23:31:40 23:34:47 30° 97° (E) 23:37:53 435.315
UNISAT 6 22 Oct 23:34:21 23:38:19 29° 293° (WNW) 23:42:11 437.425
RS-15 22 Oct 23:46:15 23:57:46 50° 110° (ESE) 00:09:18 29.354- 29.394
TIGRISAT 22 Oct 23:48:37 23:52:15 23° 295° (WNW) 23:55:48 435.000
PRISM 22 Oct 23:48:38 23:52:32 41° 289° (WNW) 23:56:25 437.425
EO-79 22 Oct 23:56:51 00:00:17 23° 94° (E) 00:03:40 145.935-145.965
DX 1 23 Oct 00:01:25 00:02:27 11° 59° (ENE) 00:03:28 434.975-435.025
POLYITAN 1 23 Oct 00:02:15 00:05:52 26° 95° (E) 00:09:26 437.675
LO-87 23 Oct 00:11:16 00:13:23 15° 268° (W) 00:15:34 145.935 - 145.965
50 SAT 23 Oct 00:13:57 00:15:04 11° 64° (ENE) 00:16:12 437.505
UKube-1 23 Oct 00:19:41 00:20:36 11° 59° (ENE) 00:21:30 .
QB50P2 23 Oct 00:22:22 00:26:32 49° 99° (E) 00:30:38 145.880/145.840
NANOSAT C BR1 23 Oct 00:22:47 00:26:47 39° 98° (E) 00:30:44 145.865
BUGSAT 1 23 Oct 00:31:11 00:31:58 10° 89° (E) 00:32:44 437.445
DUCHIFAT 1 23 Oct 00:31:53 00:35:55 43° 99° (E) 00:39:56 145.980
VELOX 1 23 Oct 00:36:22 00:40:45 87° 254° (WSW) 00:45:10 145.980
AIST 2D 23 Oct 01:05:32 01:07:43 16° 293° (WNW) 01:09:54 435.315
SPROUT 23 Oct 01:06:49 01:10:30 28° 264° (W) 01:14:14 437.525
EO-79 23 Oct 01:32:16 01:36:03 32° 291° (WNW) 01:39:49 145.935-145.965
DX 1 23 Oct 01:33:37 01:37:56 84° 257° (WSW) 01:42:19 434.975-435.025
MOZHAYETS 4 23 Oct 01:36:41 01:37:57 11° 59° (ENE) 01:39:13
POLYITAN 1 23 Oct 01:37:56 01:41:36 28° 292° (WNW) 01:45:12 437.675
Oscar 19 23 Oct 01:39:56 01:44:30 31° 96° (E) 01:49:01 437.125/150
50 SAT 23 Oct 01:43:55 01:46:59 40° 261° (W) 01:50:06 437.505
UKube-1 23 Oct 01:51:38 01:55:56 84° 259° (WSW) 02:00:16 .
NO-84 23 Oct 01:52:21 01:56:10 32° 130° (SE) 01:59:59 435.350 FM
RS-15 23 Oct 01:58:03 02:10:09 59° 314° (NW) 02:22:14 29.354- 29.394
NANOSAT C BR1 23 Oct 01:59:08 02:02:12 20° 295° (WNW) 02:05:15 145.865
QB50P2 23 Oct 01:59:14 02:01:55 16° 296° (WNW) 02:04:35 145.880/145.840
BUGSAT 1 23 Oct 02:03:34 02:07:47 70° 286° (WNW) 02:11:56 437.445
DUCHIFAT 1 23 Oct 02:08:22 02:11:15 18° 296° (WNW) 02:14:07 145.980
ITUPSAT 1 23 Oct 02:29:40 02:33:58 33° 68° (ENE) 02:38:17 437.325
Gurwin Techsat 1B 23 Oct 02:33:46 02:39:06 70° 103° (ESE) 02:44:23 435.225
M-CUBED/EXP-1 PRIME 23 Oct 02:37:31 02:41:08 67° 107° (ESE) 02:45:01 437.505
BEESAT 23 Oct 02:42:53 02:47:26 45° 70° (ENE) 02:52:01 436.000
MOZHAYETS 4 23 Oct 03:09:44 03:14:22 90° 217° (SW) 03:19:02
Oscar 19 23 Oct 03:19:13 03:23:47 33° 293° (WNW) 03:28:18 437.125/150
CUBESAT XI-V 23 Oct 03:29:17 03:33:23 33° 69° (ENE) 03:37:30 437.345
NO-84 23 Oct 03:29:20 03:33:30 46° 328° (NNW) 03:37:35 435.350 FM
AO-7 23 Oct 03:57:48 04:05:52 52° 102° (ESE) 04:13:54 .
ITAMSAT 1 23 Oct 03:57:52 04:02:46 39° 98° (E) 04:07:38 435.822/435.867
ITUPSAT 1 23 Oct 04:07:40 04:11:47 28° 264° (W) 04:15:56 437.325
M-CUBED/EXP-1 PRIME 23 Oct 04:14:22 04:15:10 11° 302° (WNW) 04:15:58 437.505
Gurwin Techsat 1B 23 Oct 04:15:03 04:18:28 18° 300° (WNW) 04:21:52 435.225
RS-15 23 Oct 04:15:55 04:26:03 28° 345° (NNW) 04:36:00 29.354- 29.394
KKS-1 23 Oct 04:16:13 04:20:04 30° 68° (ENE) 04:23:57 437.445
BEESAT 23 Oct 04:21:52 04:25:24 20° 267° (W) 04:28:59 436.000
STARS 23 Oct 04:40:56 04:44:23 23° 65° (ENE) 04:47:50 437.465
CUBESAT XI-V 23 Oct 05:06:54 05:10:45 26° 265° (W) 05:14:38 437.345
NO-84 23 Oct 05:08:45 05:11:44 18° 347° (NNW) 05:14:39 435.350 FM
DOVE 4 23 Oct 05:10:06 05:14:33 30° 95° (E) 05:19:07 437.250
O/OREOS (USA 219) 23 Oct 05:22:39 05:26:56 36° 60° (ENE) 05:31:10 437.305
SO-50 23 Oct 05:24:08 05:27:28 21° 112° (ESE) 05:30:50 436.795
STRAND 1 23 Oct 05:35:40 05:36:33 10° 56° (NE) 05:37:26 437.568
ITAMSAT 1 23 Oct 05:37:38 05:42:04 29° 295° (WNW) 05:46:29 435.822/435.867
XW-2D 23 Oct 05:41:38 05:42:17 10° 90° (E) 05:42:56 145.860 - 145.880
AO-7 23 Oct 05:50:55 05:58:25 40° 301° (WNW) 06:05:55 .
KKS-1 23 Oct 05:52:49 05:56:35 27° 264° (W) 06:00:23 437.445
XW-2B 23 Oct 05:53:53 05:55:59 14° 92° (E) 05:58:05 145.730 - 145.750
XW-2C 23 Oct 06:16:24 06:19:37 27° 96° (E) 06:22:50 145.795 - 145.815
STARS 23 Oct 06:16:27 06:20:30 36° 262° (W) 06:24:35 437.465
HO-68 23 Oct 06:26:40 06:30:50 16° 88° (E) 06:34:58 435.675
CUTE-I 23 Oct 06:28:26 06:33:18 34° 96° (E) 06:38:08 437.470
RS-15 23 Oct 06:33:26 06:43:44 30° 20° (NNE) 06:53:37 29.354- 29.394
CUTE 1.7 + AOD 2 23 Oct 06:39:31 06:40:57 11° 89° (E) 06:42:23 437.475
DOVE 4 23 Oct 06:47:38 06:52:12 36° 291° (WNW) 06:56:56 437.250
NO-84 23 Oct 06:47:44 06:50:25 16° 8° (N) 06:53:01 435.350 FM
KAITUO 1B 23 Oct 06:51:01 06:54:38 52° 100° (E) 06:58:14 145.475/437.950
XW-2F 23 Oct 06:58:07 07:01:52 86° 100° (E) 07:05:35 145.980 - 146.000
NUDT-PHONESAT 23 Oct 06:59:59 07:03:38 66° 101° (ESE) 07:07:14 437.300
O/OREOS (USA 219) 23 Oct 07:02:28 07:06:08 24° 258° (WSW) 07:09:47 437.305
SO-50 23 Oct 07:03:17 07:07:36 47° 310° (NW) 07:11:58 436.795
STRAND 1 23 Oct 07:09:41 07:14:48 73° 73° (ENE) 07:19:57 437.568
LilacSat-2 23 Oct 07:10:03 07:13:45 58° 286° (WNW) 07:17:26 437.200
FO-29 23 Oct 07:11:39 07:14:38 15° 55° (NE) 07:17:47 435.910
XW-2D 23 Oct 07:13:07 07:16:48 55° 285° (WNW) 07:20:26 145.860 - 145.880
XW-2B 23 Oct 07:26:50 07:30:20 39° 288° (WNW) 07:33:49 145.730 - 145.750
PCSat 23 Oct 07:34:16 07:39:30 53° 115° (ESE) 07:44:46 145.827
XW-2A 23 Oct 07:45:39 07:48:04 18° 94° (E) 07:50:27 145.665 - 145.685
AO-73 23 Oct 07:50:39 07:51:23 10° 88° (E) 07:52:07 145.935
XW-2C 23 Oct 07:50:48 07:53:40 21° 292° (WNW) 07:56:30 145.795 - 145.815
YUBILEINY 23 Oct 08:00:47 08:07:28 26° 80° (E) 08:14:09 435.215
CUTE-I 23 Oct 08:08:30 08:13:17 34° 294° (WNW) 08:18:04 437.470
CUBEBUG 2 23 Oct 08:09:51 08:14:29 68° 101° (E) 08:18:55 437.445
HO-68 23 Oct 08:12:14 08:19:30 88° 106° (ESE) 08:26:43 435.675
ZACube-1 23 Oct 08:12:26 08:15:48 21° 93° (E) 08:19:05 437.345
CUTE 1.7 + AOD 2 23 Oct 08:13:01 08:17:12 63° 285° (WNW) 08:21:20 437.475
SEEDS 23 Oct 08:13:54 08:18:05 82° 102° (ESE) 08:22:16 437.485
ISS 23 Oct 08:24:18 08:26:42 19° 134° (SE) 08:29:07 437.550
NO-84 23 Oct 08:25:01 08:28:46 37° 29° (NNE) 08:32:15 435.350 FM
KAITUO 1B 23 Oct 08:26:49 08:28:09 12° 296° (WNW) 08:29:30 145.475/437.950
AAUSAT CUBESAT 2 23 Oct 08:28:12 08:32:14 50° 99° (E) 08:36:15 437.432
UWE-3 23 Oct 08:41:20 08:45:50 84° 103° (ESE) 08:50:10 435.000/436.395/437.385
Oscar 11 23 Oct 08:43:13 08:46:57 28° 96° (E) 08:50:37 .
RS-15 23 Oct 08:46:59 08:59:00 68° 50° (NE) 09:10:18 29.354- 29.394
SO-50 23 Oct 08:48:47 08:49:12 10° 331° (NNW) 08:49:37 436.795
STRAND 1 23 Oct 08:51:50 08:54:30 14° 271° (W) 08:57:12 437.568
FO-29 23 Oct 08:53:35 08:58:51 82° 257° (WSW) 09:04:38 435.910
UNISAT 6 23 Oct 08:56:57 09:01:00 30° 68° (ENE) 09:05:06 437.425
PRISM 23 Oct 09:05:06 09:07:20 14° 63° (ENE) 09:09:34 437.425
TIGRISAT 23 Oct 09:10:33 09:14:50 37° 70° (ENE) 09:19:10 435.000
XW-2A 23 Oct 09:18:01 09:20:44 23° 290° (WNW) 09:23:26 145.665 - 145.685
nSIGHT-1 23 Oct 09:18:34 09:21:45 74° 145° (SE) 09:24:57 .
PCSat 23 Oct 09:18:38 09:23:11 27° 314° (NW) 09:27:47 145.827
AO-73 23 Oct 09:23:49 09:28:09 71° 284° (WNW) 09:32:21 145.935
DELFI C3 23 Oct 09:27:15 09:29:58 18° 93° (E) 09:32:41 145.870
Max Valier Satellite 23 Oct 09:41:06 09:43:32 17° 93° (E) 09:45:57 145.860
CUBEBUG 2 23 Oct 09:48:07 09:50:28 14° 299° (WNW) 09:52:47 437.445
ZACube-1 23 Oct 09:48:12 09:52:10 34° 290° (WNW) 09:56:01 437.345
SEEDS 23 Oct 09:52:52 09:53:07 10° 299° (WNW) 09:53:22 437.485
YUBILEINY 23 Oct 09:54:45 10:03:24 71° 281° (W) 10:12:09 435.215
ISS 23 Oct 09:59:43 10:02:55 56° 331° (NNW) 10:06:09 437.550
HO-68 23 Oct 10:01:21 10:06:20 21° 306° (NW) 10:11:18 435.675
NO-84 23 Oct 10:02:37 10:06:06 33° 229° (SW) 10:09:19 435.350 FM
AAUSAT CUBESAT 2 23 Oct 10:04:54 10:07:16 15° 296° (WNW) 10:09:38 437.432
AIST 2D 23 Oct 10:07:46 10:09:40 14° 66° (ENE) 10:11:35 435.315
Oscar 11 23 Oct 10:19:22 10:23:00 27° 292° (WNW) 10:26:36 .
UWE-3 23 Oct 10:20:22 10:21:32 11° 301° (WNW) 10:22:41 435.000/436.395/437.385
UNISAT 6 23 Oct 10:33:32 10:37:38 30° 265° (W) 10:41:47 437.425
PRISM 23 Oct 10:38:14 10:42:10 51° 260° (W) 10:46:09 437.425
TIGRISAT 23 Oct 10:47:49 10:51:35 24° 266° (W) 10:55:24 435.000
EO-79 23 Oct 10:50:15 10:53:25 21° 66° (ENE) 10:56:37 145.935-145.965
nSIGHT-1 23 Oct 10:55:36 10:58:18 24° 344° (NNW) 11:01:00 .
POLYITAN 1 23 Oct 10:55:40 10:59:04 23° 67° (ENE) 11:02:30 437.675
EO-88 23 Oct 10:56:25 11:00:02 75° 286° (WNW) 11:03:39 145.990 - 145.960
BEESAT 3 23 Oct 10:56:48 11:00:18 30° 115° (ESE) 11:03:51 437.485
RS-15 23 Oct 11:00:18 11:10:39 38° 254° (WSW) 11:20:33 29.354- 29.394
DELFI C3 23 Oct 11:01:11 11:04:50 36° 289° (WNW) 11:08:29 145.870
Max Valier Satellite 23 Oct 11:14:09 11:17:26 32° 289° (WNW) 11:20:42 145.860
ESTCUBE 1 23 Oct 11:15:00 11:17:56 17° 92° (E) 11:20:52 437.505/2401.250
NANOSAT C BR1 23 Oct 11:15:28 11:19:16 33° 70° (ENE) 11:23:07 145.865
QB50P2 23 Oct 11:15:29 11:19:29 41° 71° (ENE) 11:23:32 145.880/145.840
DUCHIFAT 1 23 Oct 11:24:12 11:28:04 36° 70° (ENE) 11:31:59 145.980
LO-87 23 Oct 11:35:21 11:38:46 37° 98° (E) 11:42:08 145.935 - 145.965
ISS 23 Oct 11:37:24 11:39:54 20° 350° (N) 11:42:25 437.550
AIST 2D 23 Oct 11:39:16 11:42:32 36° 262° (W) 11:45:48 435.315
YUBILEINY 23 Oct 11:57:25 12:02:03 15° 304° (NW) 12:06:43 435.215
Gurwin Techsat 1B 23 Oct 12:18:22 12:21:47 18° 60° (ENE) 12:25:13 435.225
BEESAT 2 23 Oct 12:24:50 12:28:51 80° 120° (ESE) 12:32:55 435.950
EO-79 23 Oct 12:24:57 12:28:56 37° 263° (W) 12:32:56 145.935-145.965
AO-85 23 Oct 12:25:05 12:28:48 47° 119° (ESE) 12:32:37 145.980
VELOX 1 23 Oct 12:26:21 12:29:11 16° 92° (E) 12:31:59 145.980
POLYITAN 1 23 Oct 12:30:48 12:34:40 33° 263° (W) 12:38:34 437.675
nSIGHT-1 23 Oct 12:33:04 12:35:21 18° 4° (N) 12:37:38 .
BEESAT 3 23 Oct 12:34:20 12:37:49 28° 313° (NW) 12:41:22 437.485
SPROUT 23 Oct 12:50:38 12:54:45 43° 99° (E) 12:58:49 437.525
ESTCUBE 1 23 Oct 12:50:40 12:54:59 48° 288° (WNW) 12:59:17 437.505/2401.250
NANOSAT C BR1 23 Oct 12:51:40 12:55:01 22° 266° (W) 12:58:24 145.865
QB50P2 23 Oct 12:52:28 12:55:26 18° 267° (W) 12:58:26 145.880/145.840
BUGSAT 1 23 Oct 12:53:25 12:57:37 90° 81° (E) 13:01:54 437.445
Oscar 19 23 Oct 12:57:29 13:02:28 51° 71° (ENE) 13:07:27 437.125/150
DUCHIFAT 1 23 Oct 13:00:37 13:03:49 21° 266° (W) 13:07:03 145.980
AO-7 23 Oct 13:09:02 13:14:21 19° 47° (NE) 13:19:40 .
LO-87 23 Oct 13:09:43 13:11:51 15° 294° (WNW) 13:13:57 145.935 - 145.965
ISS 23 Oct 13:14:38 13:17:12 21° 11° (N) 13:19:45 437.550
DX 1 23 Oct 13:21:55 13:24:34 16° 92° (E) 13:27:11 434.975-435.025
M-CUBED/EXP-1 PRIME 23 Oct 13:24:39 13:27:58 78° 250° (WSW) 13:31:14 437.505
UKube-1 23 Oct 13:38:53 13:41:20 15° 92° (E) 13:43:46 .
SO-50 23 Oct 13:53:12 13:57:13 29° 45° (NE) 14:01:15 436.795
Gurwin Techsat 1B 23 Oct 13:55:53 14:01:09 69° 257° (WSW) 14:06:29 435.225
VELOX 1 23 Oct 14:01:34 14:05:52 49° 288° (WNW) 14:10:10 145.980
BEESAT 2 23 Oct 14:04:46 14:07:06 15° 321° (NW) 14:09:27 435.950
AO-85 23 Oct 14:06:33 14:09:27 19° 319° (NW) 14:12:25 145.980
nSIGHT-1 23 Oct 14:09:18 14:12:17 35° 23° (NNE) 14:15:16 .
SPROUT 23 Oct 14:27:20 14:30:18 18° 295° (WNW) 14:33:16 437.525
50 SAT 23 Oct 14:33:33 14:36:47 54° 286° (WNW) 14:40:00 437.505
Oscar 19 23 Oct 14:38:18 14:42:04 20° 268° (W) 14:45:51 437.125/150
PCSat 23 Oct 14:39:33 14:41:39 12° 33° (NNE) 14:43:47 145.827
ISS 23 Oct 14:50:53 14:54:08 63° 30° (NNE) 14:57:23 437.550
DX 1 23 Oct 14:56:46 15:01:01 51° 288° (WNW) 15:05:15 434.975-435.025
AO-7 23 Oct 14:57:32 15:05:48 75° 68° (ENE) 15:14:04 .
MOZHAYETS 4 23 Oct 15:04:35 15:07:53 19° 92° (E) 15:11:09
UKube-1 23 Oct 15:13:26 15:17:39 52° 288° (WNW) 15:21:51 .
ITAMSAT 1 23 Oct 15:16:37 15:21:45 66° 72° (ENE) 15:26:57 435.822/435.867
SO-50 23 Oct 15:33:27 15:37:46 40° 243° (WSW) 15:42:07 436.795
nSIGHT-1 23 Oct 15:45:36 15:48:33 34° 221° (SW) 15:51:30 .
ITUPSAT 1 23 Oct 16:06:08 16:10:56 68° 102° (ESE) 16:15:40 437.325
DOVE 4 23 Oct 16:17:03 16:20:40 28° 67° (ENE) 16:24:26 437.250
BEESAT 23 Oct 16:19:14 16:24:02 88° 284° (WNW) 16:28:48 436.000
PCSat 23 Oct 16:21:02 16:26:21 53° 55° (NE) 16:31:37 145.827
ISS 23 Oct 16:28:05 16:30:18 17° 227° (SW) 16:32:32 437.550
MOZHAYETS 4 23 Oct 16:40:54 16:45:14 43° 289° (WNW) 16:49:32
AO-7 23 Oct 16:52:51 16:59:16 25° 267° (W) 17:05:45 .
HO-68 23 Oct 16:57:59 17:01:53 16° 50° (NE) 17:05:46 435.675
ITAMSAT 1 23 Oct 16:58:34 17:01:41 16° 269° (W) 17:04:50 435.822/435.867
XW-2C 23 Oct 16:59:10 17:01:36 17° 66° (ENE) 17:04:01 145.795 - 145.815
CUBESAT XI-V 23 Oct 17:01:13 17:05:49 70° 101° (E) 17:10:25 437.345
KAITUO 1B 23 Oct 17:31:48 17:34:59 27° 70° (ENE) 17:38:11 145.475/437.950
CUTE 1.7 + AOD 2 23 Oct 17:34:28 17:35:02 10° 61° (ENE) 17:35:36 437.475
XW-2F 23 Oct 17:39:25 17:43:00 44° 73° (ENE) 17:46:36 145.980 - 146.000
NUDT-PHONESAT 23 Oct 17:39:43 17:43:03 32° 71° (ENE) 17:46:23 437.300
KKS-1 23 Oct 17:41:44 17:46:08 51° 100° (E) 17:50:30 437.445
ITUPSAT 1 23 Oct 17:45:27 17:48:11 15° 300° (WNW) 17:50:54 437.325
CUTE-I 23 Oct 17:51:03 17:56:16 60° 72° (ENE) 18:01:32 437.470
LilacSat-2 23 Oct 17:52:11 17:55:59 75° 75° (ENE) 17:59:47 437.200
XW-2D 23 Oct 17:54:33 17:58:20 77° 77° (ENE) 18:02:07 145.860 - 145.880
DOVE 4 23 Oct 17:54:43 17:58:19 27° 266° (W) 18:02:05 437.250
BEESAT 23 Oct 17:59:33 18:01:02 11° 302° (WNW) 18:02:31 436.000
STARS 23 Oct 18:04:22 18:08:28 36° 98° (E) 18:12:32 437.465
PCSat 23 Oct 18:05:09 18:09:22 23° 253° (WSW) 18:13:34 145.827
XW-2B 23 Oct 18:08:08 18:11:56 76° 259° (W) 18:15:43 145.730 - 145.750
YUBILEINY 23 Oct 18:09:35 18:13:25 13° 54° (NE) 18:17:16 435.215
XW-2C 23 Oct 18:31:57 18:35:30 37° 263° (W) 18:39:02 145.795 - 145.815
CUBESAT XI-V 23 Oct 18:40:20 18:42:37 14° 299° (WNW) 18:44:55 437.345
HO-68 23 Oct 18:41:15 18:48:22 72° 70° (ENE) 18:55:33 435.675
AO-73 23 Oct 18:46:47 18:48:15 11° 60° (ENE) 18:49:44 145.935
SEEDS 23 Oct 19:05:59 19:10:05 61° 74° (ENE) 19:14:12 437.485
CUTE 1.7 + AOD 2 23 Oct 19:05:59 19:10:12 82° 257° (WSW) 19:14:27 437.475
BEESAT 2 23 Oct 19:06:04 19:06:57 11° 34° (NE) 19:07:50 435.950
KAITUO 1B 23 Oct 19:06:10 19:08:58 20° 266° (W) 19:11:47 145.475/437.950
CUBEBUG 2 23 Oct 19:07:57 19:12:35 62° 74° (ENE) 19:17:18 437.445
ZACube-1 23 Oct 19:08:52 19:12:18 21° 66° (ENE) 19:15:45 437.345
BEESAT 3 23 Oct 19:12:16 19:15:39 26° 46° (NE) 19:19:01 437.485
NUDT-PHONESAT 23 Oct 19:14:31 19:16:59 17° 267° (W) 19:19:27 437.300
XW-2F 23 Oct 19:15:30 19:17:20 13° 269° (W) 19:19:10 145.980 - 146.000
AO-85 23 Oct 19:15:49 19:17:24 12° 34° (NE) 19:19:02 145.980
AAUSAT CUBESAT 2 23 Oct 19:18:58 19:22:43 36° 71° (ENE) 19:26:30 437.432
KKS-1 23 Oct 19:19:19 19:22:17 18° 297° (WNW) 19:25:15 437.445
STRAND 1 23 Oct 19:19:52 19:23:56 23° 93° (E) 19:27:57 437.568
CUTE-I 23 Oct 19:33:07 19:36:43 18° 269° (W) 19:40:20 437.470
O/OREOS (USA 219) 23 Oct 19:35:56 19:40:02 34° 105° (ESE) 19:44:12 437.305
UWE-3 23 Oct 19:38:15 19:42:54 75° 75° (ENE) 19:47:35 435.000/436.395/437.385
Oscar 11 23 Oct 19:38:56 19:42:27 25° 67° (ENE) 19:45:59 .
STARS 23 Oct 19:41:05 19:44:35 23° 294° (WNW) 19:48:05 437.465
XW-2A 23 Oct 19:48:52 19:52:15 65° 259° (W) 19:55:39 145.665 - 145.685
FO-29 23 Oct 20:01:37 20:05:53 16° 88° (E) 20:10:19 435.910
